Location: Maccacari
(45.1333°N, 11.1333°E)
Time: 19:46:35
(UTC+00:00)

Tiros 1 despin weight - Pass Details

Date: 27 January 2021
Orbit: 593 x 642 km, 48.2° (Epoch: 26 February)

Event Time Altitude Azimuth Distance (km) Brightness Sun altitude
Rises 19:27:20 0° 279° (W) 2,844 ? -33.7°
Reaches altitude 10° 19:31:14 10° 245° (WSW) 1,927 ? -34.3°
Enters shadow 19:32:18 11° 231° (SW) 1,846 ? -34.5°
Maximum altitude 19:32:35 11° 227° (SW) 1,841 - -34.6°
Drops below altitude 10° 19:33:55 10° 209° (SSW) 1,919 - -34.8°
Sets 19:37:47 0° 175° (S) 2,810 - -35.5°
